Nanaimo, British Columbia

6:30 PM PDT on March 29, 2017 (GMT -0700)
Nanaimo

Weather History for CYCD - October, 2012

Change the Weather History Date:

Tuesday, October 16, 2012

  Actual Average Record
Temperature  
Mean Temperature 46 °F -  
Max Temperature 53 °F 53 °F 69 °F (2002)
Min Temperature 38 °F 37 °F 32 °F (1999)
Degree Days  
Heating Degree Days 20    
Moisture  
Dew Point 39 °F    
Average Humidity 69    
Maximum Humidity 97    
Minimum Humidity 42    
Precipitation  
Precipitation 0.20 in 0.19 in - ()
Sea Level Pressure  
Sea Level Pressure 29.89 in    
Wind  
Wind Speed 5 mph ()    
Max Wind Speed 14 mph    
Max Gust Speed 21 mph    
Visibility 20.0 miles    
Events      
Averages and records for this station are not official NWS values.
T = Trace of Precipitation, MM = Missing Value Source: Averaged Metar Reports

Daily Weather History Graph

Daily Weather History Graph

Search for Another Location

Airport or City:

Trip Planner

Search our weather history database for the weather conditions in past years. The results will help you decide how hot, cold, wet, or windy it might be!

Date:

Astronomy

Oct. 16, 2012 Rise Set
Actual Time 7:38 AM PDT 6:22 PM PDT
Civil Twilight 7:06 AM PDT 6:54 PM PDT
Nautical Twilight 6:29 AM PDT 7:31 PM PDT
Astronomical Twilight 5:53 AM PDT 8:07 PM PDT
Moon 9:20 AM PDT (10/16) 6:58 PM PDT (10/16)
Length of Visible Light 11h 47m
Length of Day
10h 43m
New Moon, 2% of the Moon is Illuminated
Oct 16
New Moon
Oct 21
First Quarter
Oct 29
Full
Nov 6
Last Quarter
Nov 13
New

Hourly Weather History & Observations

Time (PDT) Temp. Windchill Dew Point Humidity Pressure Visibility Wind Dir Wind Speed Gust Speed Precip Events Conditions
5:00 AM 41 °F - 38 °F 86% 29.54 in - ENE 9.2 mph - -  
6:00 AM 50.0 °F - 37.4 °F 62% 29.73 in 20.0 mi NNW 8.1 mph - N/A   Partly Cloudy
7:00 AM 51.8 °F - 35.6 °F 54% 29.80 in 20.0 mi WNW 6.9 mph - N/A   Partly Cloudy
8:00 AM 44.6 °F - 39.2 °F 81% 29.83 in 30.0 mi Calm Calm - N/A   Partly Cloudy
9:00 AM 46.4 °F - 42.8 °F 87% 29.87 in 30.0 mi Calm Calm - N/A   Partly Cloudy
10:00 AM 55.4 °F - 42.8 °F 63% 29.91 in 20.0 mi NE 3.5 mph - N/A   Partly Cloudy
11:00 AM 40 °F - 39 °F 97% 29.46 in - ESE 2.3 mph - -  
11:00 AM 57.2 °F - 37.4 °F 48% 29.95 in 20.0 mi West 2.3 mph - N/A   Scattered Clouds
12:00 PM 59.0 °F - 39.2 °F 48% 29.98 in 20.0 mi West 5.8 mph - N/A   Mostly Cloudy
1:00 PM 60.8 °F - 37.4 °F 42% 30.00 in 30.0 mi West 9.2 mph - N/A   Scattered Clouds
2:00 PM 59.0 °F - 37.4 °F 45% 30.02 in 25.0 mi West 9.2 mph 18.4 mph N/A   Mostly Cloudy
3:00 PM 59.0 °F - 37.4 °F 45% 30.02 in 25.0 mi West 9.2 mph 20.7 mph N/A   Scattered Clouds
4:00 PM 59.0 °F - 37.4 °F 45% 30.05 in 20.0 mi West 12.7 mph 20.7 mph N/A   Scattered Clouds
5:00 PM 39 °F - 38 °F 93% 29.45 in - WSW 11.5 mph - -  
5:00 PM 53.6 °F - 41.0 °F 62% 30.09 in 20.0 mi NNW 3.5 mph - N/A   Partly Cloudy
6:00 PM 51.8 °F - 42.8 °F 71% 30.12 in 20.0 mi Calm Calm - N/A   Partly Cloudy
7:00 PM 46.4 °F - 42.8 °F 87% 30.14 in 20.0 mi Calm Calm - N/A   Partly Cloudy
8:00 PM 44.6 °F - 41.0 °F 87% 30.17 in 20.0 mi WSW 2.3 mph - N/A   Partly Cloudy
9:00 PM 42.8 °F 41.1 °F 39.2 °F 87% 30.19 in 20.0 mi West 3.5 mph - N/A   Partly Cloudy
11:00 PM 39 °F - 36 °F 84% 29.54 in - West 13.8 mph - -